Terminal Aerodrome Forecast
Issued by NWS Jackson, KY

Home | Current Version | Previous Version | Text Only | Print | Product List | Glossary On
Versions: 1 2 3 4 5 6 7 8 9 10 11 12 13 14
000
FTUS43 KJKL 012100 AAA
TAFJKL
TAF AMD
KJKL 012154Z 0122/0218 19010G17KT P6SM SCT025 OVC040
     FM012230 19010G22KT 5SM -RA BR OVC025
     FM020400 22010G20KT 3SM -RA BR OVC015
     FM021000 27010G20KT 2SM -SN OVC008
     FM021500 29010G18KT P6SM VCSH BKN010 OVC020=

USA.gov is the U.S. government's official web portal to all federal, state and local government web resources and services.